{"data":{"norad_id":63198,"epoch":"2026-05-24T21:55:57.461664Z","epoch_age_seconds":93138,"freshness":"FRESH","line1":"1 63198U 25048R   26144.91385951  .00015927  00000+0  58660-3 0  9995","line2":"2 63198  43.0002  14.4965 0001496 274.1492  85.9189 15.27604602 68755","mean_motion":15.27604602,"eccentricity":0.0001496,"inclination_deg":43.0002,"raan_deg":14.4965,"arg_perigee_deg":274.1492,"mean_anomaly_deg":85.9189,"bstar":0.0005866,"rev_number":6875,"period_min":94.265230552114,"perigee_km":481.94900737031,"apogee_km":484.0018522093,"semimajor_km":6861.1124297898,"source":"CELESTRAK","updated_at":"2026-05-25T13:38:19.922282Z"}}